Rome, NY

7:07 AM EST on November 21, 2019 (GMT -0500)
Griffiss

Weather History for KRME - September, 2019

Change the Weather History Date:

Tuesday, September 3, 2019

  Actual Average Record
Temperature  
Mean Temperature 66 °F -  
Max Temperature 77 °F 74 °F 91 °F (2010)
Min Temperature 57 °F 54 °F 45 °F (1989)
Cooling Degree Days 1    
Growing Degree Days 16 (Base 50)    
Moisture  
Dew Point 58 °F    
Average Humidity 80    
Maximum Humidity 97    
Minimum Humidity 25    
Precipitation  
Precipitation 0.00 in - - ()
Sea Level Pressure  
Sea Level Pressure 30.02 in    
Wind  
Wind Speed 2 mph (SE)    
Max Wind Speed 8 mph    
Max Gust Speed -    
Visibility 10 miles    
Events      
Averages and records for this station are not official NWS values.
T = Trace of Precipitation, MM = Missing Value Source: NWS Daily Summary

Daily Weather History Graph

Daily Weather History Graph

Search for Another Location

Airport or City:

Astronomy

Sep. 03, 2019 Rise Set
Actual Time 6:27 AM EDT 7:33 PM EDT
Civil Twilight 5:58 AM EDT 8:02 PM EDT
Nautical Twilight 5:23 AM EDT 8:37 PM EDT
Astronomical Twilight 4:46 AM EDT 9:14 PM EDT
Moon 11:25 AM EDT (9/3) 10:20 PM EDT (9/3)
Length of Visible Light 14h 04m
Length of Day
13h 05m
Waxing Crescent, 24% of the Moon is Illuminated
Sep 3
Waxing Crescent
Sep 5
First Quarter
Sep 14
Full
Sep 21
Last Quarter
Sep 28
New

Hourly Weather History & Observations

Time (EDT) Temp. Dew Point Humidity Pressure Visibility Wind Dir Wind Speed Gust Speed Precip Events Conditions
12:53 AM 59.0 °F 57.0 °F 93% 30.05 in 10.0 mi Calm Calm - N/A   Mostly Cloudy
1:53 AM 57.9 °F 57.0 °F 97% 30.04 in 10.0 mi Calm Calm - N/A   Overcast
2:53 AM 57.9 °F 57.0 °F 97% 30.02 in 10.0 mi Calm Calm - N/A   Overcast
3:53 AM 57.9 °F 57.0 °F 97% 30.03 in 10.0 mi Calm Calm - N/A   Overcast
4:53 AM 57.0 °F 55.9 °F 96% 30.03 in 10.0 mi Calm Calm - N/A   Mostly Cloudy
5:32 AM 57.9 °F 55.9 °F 93% 30.04 in 10.0 mi Calm Calm - N/A   Overcast
5:53 AM 57.9 °F 57.0 °F 97% 30.05 in 10.0 mi Calm Calm - N/A   Overcast
6:53 AM 59.0 °F 57.0 °F 93% 30.08 in 10.0 mi Calm Calm - N/A   Overcast
7:04 AM 60.1 °F 57.0 °F 90% 30.09 in 10.0 mi Calm Calm - N/A   Overcast
7:35 AM 59.0 °F 57.9 °F 96% 30.09 in 10.0 mi SE 3.5 mph - N/A   Overcast
7:53 AM 60.1 °F 57.9 °F 93% 30.09 in 10.0 mi ESE 3.5 mph - N/A   Overcast
8:32 AM 61.0 °F 57.0 °F 87% 30.09 in 10.0 mi Calm Calm - N/A   Overcast
8:53 AM 61.0 °F 57.9 °F 90% 30.08 in 10.0 mi Calm Calm - N/A   Overcast
9:53 AM 63.0 °F 59.0 °F 87% 30.09 in 10.0 mi SSE 3.5 mph - N/A   Overcast
10:53 AM 66.9 °F 60.1 °F 79% 30.07 in 10.0 mi Calm Calm - N/A   Mostly Cloudy
11:53 AM 69.1 °F 60.1 °F 73% 30.07 in 10.0 mi Calm Calm - N/A   Overcast
12:28 PM 70.0 °F 59.0 °F 68% 30.07 in 10.0 mi Variable 3.5 mph - N/A   Scattered Clouds
12:53 PM 72.0 °F 60.1 °F 66% 30.06 in 10.0 mi Calm Calm - N/A   Partly Cloudy
1:53 PM 73.0 °F 35.1 °F 25% 30.03 in 10.0 mi SW 5.8 mph - N/A   Clear
2:53 PM 75.0 °F 55.0 °F 50% 30.01 in 10.0 mi SSW 3.5 mph - N/A   Partly Cloudy
3:53 PM 75.0 °F 60.1 °F 60% 29.98 in 10.0 mi SSE 4.6 mph - N/A   Clear
4:53 PM 75.9 °F 61.0 °F 60% 29.96 in 10.0 mi Calm Calm - N/A   Clear
5:53 PM 75.9 °F 62.1 °F 62% 29.95 in 10.0 mi SE 6.9 mph - N/A   Clear
6:53 PM 72.0 °F 63.0 °F 73% 29.94 in 10.0 mi ESE 8.1 mph - N/A   Scattered Clouds
7:53 PM 70.0 °F 63.0 °F 78% 29.95 in 10.0 mi ESE 4.6 mph - N/A   Overcast
8:53 PM 69.1 °F 63.0 °F 81% 29.96 in 10.0 mi ESE 5.8 mph - N/A   Overcast
9:53 PM 68.0 °F 63.0 °F 84% 29.94 in 10.0 mi SE 8.1 mph - N/A   Mostly Cloudy
10:53 PM 66.9 °F 62.1 °F 84% 29.92 in 10.0 mi SE 8.1 mph - N/A   Partly Cloudy
11:53 PM 68.0 °F 62.1 °F 81% 29.90 in 10.0 mi ESE 8.1 mph - N/A   Overcast